OneWeb SL0150

operational
NORAD ID: 48047 Int'l Des: 2021-025 Owner: ONEWEBN Country: UK Constellation: oneweb
LEOCIRCULARPOLARONEWEB_TYPE

About OneWeb SL0150

Description loading...

Live Position

Loading 3D Globe...

Upcoming Passes

Altitude History

Altitude vs Time

uPlot chart will show altitude changes over time

Two-Line Element Set

1 48047U 21025F 26034.56359921 .00000109 00000-0 26423-3 0 9998
2 48047 87.9036 346.7650 0002007 79.4995 280.6360 13.13469655236000
Epoch: Feb 3, 2026 • Age: 19 hours

Current Status

Altitude 1216.4 km
Velocity 7.25 km/s
Sub-Earth Point 48.11°N, 97.41°W
Launch Date Mar 25, 2021
Age 4.8 years
Type internet

Technical Details

Classification Payload
Mass 148.00 kg
Dry Mass 140.00 kg
Total Mass 148.00 kg
Length 1.30 m
Diameter 1.00 m
Span 5.00 m
Shape Trapezoid+2 pan
Manufacturer ONEWUS
Bus Type ARROW
Phase Status In Orbit
Owner/State ONEWEBN/UK

Large Constellations

Loading constellations...